Time,TemperatureF,DewpointF,PressureIn,WindDirection,WindDirectionDegrees,WindSpeedMPH,WindSpeedGustMPH,Humidity,HourlyPrecipIn,Conditions,Clouds,dailyrainin,SoftwareType,DateUTC
2014-09-17 00:03:00,56.4,52.3,30.10,NNE,24,0.0,0.0,86,0.00,,,0.00,Wunderground v.1.15,2014-09-17 04:03:00,
2014-09-17 00:05:00,56.3,52.2,30.10,NNE,24,0.0,0.0,86,0.00,,,0.00,Wunderground v.1.15,2014-09-17 04:05:00,
2014-09-17 00:06:00,56.3,52.2,30.10,NNE,24,0.0,0.0,86,0.00,,,0.00,Wunderground v.1.15,2014-09-17 04:06:00,
2014-09-17 00:09:00,56.2,52.1,30.10,NNE,24,0.0,0.0,86,0.00,,,0.00,Wunderground v.1.15,2014-09-17 04:09:00,
2014-09-17 00:10:00,56.2,52.1,30.11,NNE,24,0.0,0.0,86,0.00,,,0.00,Wunderground v.1.15,2014-09-17 04:10:00,
2014-09-17 00:11:00,56.1,52.0,30.11,NNE,24,0.0,0.0,86,0.00,,,0.00,Wunderground v.1.15,2014-09-17 04:11:00,
2014-09-17 00:13:00,56.0,52.2,30.11,NNE,24,0.0,0.0,87,0.00,,,0.00,Wunderground v.1.15,2014-09-17 04:13:00,
2014-09-17 00:17:00,55.8,52.0,30.11,NNE,24,0.0,0.0,87,0.00,,,0.00,Wunderground v.1.15,2014-09-17 04:17:00,
2014-09-17 00:18:00,55.8,52.0,30.11,NNE,24,0.0,0.0,87,0.00,,,0.00,Wunderground v.1.15,2014-09-17 04:18:00,
2014-09-17 00:19:00,55.8,52.0,30.11,NNE,24,0.0,0.0,87,0.00,,,0.00,Wunderground v.1.15,2014-09-17 04:19:00,
2014-09-17 00:20:00,55.7,51.9,30.11,NNE,24,0.0,0.0,87,0.00,,,0.00,Wunderground v.1.15,2014-09-17 04:20:00,
2014-09-17 00:23:00,55.7,51.9,30.11,NNE,24,0.0,0.0,87,0.00,,,0.00,Wunderground v.1.15,2014-09-17 04:23:00,
2014-09-17 00:25:00,55.5,52.0,30.11,NNE,24,0.0,0.0,88,0.00,,,0.00,Wunderground v.1.15,2014-09-17 04:25:00,
2014-09-17 00:27:00,55.4,51.9,30.11,NNE,24,0.0,0.0,88,0.00,,,0.00,Wunderground v.1.15,2014-09-17 04:27:00,
2014-09-17 00:28:00,55.4,51.9,30.11,NNE,24,0.0,0.0,88,0.00,,,0.00,Wunderground v.1.15,2014-09-17 04:28:00,
2014-09-17 00:32:00,55.2,51.7,30.11,NNE,24,0.0,0.0,88,0.00,,,0.00,Wunderground v.1.15,2014-09-17 04:32:00,
2014-09-17 00:35:00,55.0,51.5,30.11,NNE,24,0.0,0.0,88,0.00,,,0.00,Wunderground v.1.15,2014-09-17 04:35:00,
2014-09-17 00:39:00,54.8,51.6,30.10,NNE,24,0.0,0.0,89,0.00,,,0.00,Wunderground v.1.15,2014-09-17 04:39:00,
2014-09-17 00:40:00,54.7,51.5,30.10,NNE,24,0.0,0.0,89,0.00,,,0.00,Wunderground v.1.15,2014-09-17 04:40:00,
2014-09-17 00:41:00,54.6,51.4,30.10,NNE,24,0.0,0.0,89,0.00,,,0.00,Wunderground v.1.15,2014-09-17 04:41:00,
2014-09-17 00:42:00,54.6,51.4,30.10,NNE,24,0.0,0.0,89,0.00,,,0.00,Wunderground v.1.15,2014-09-17 04:42:00,
2014-09-17 00:44:00,54.4,51.2,30.10,NNE,24,0.0,0.0,89,0.00,,,0.00,Wunderground v.1.15,2014-09-17 04:44:00,
2014-09-17 00:48:00,54.2,51.0,30.10,NNE,24,0.0,0.0,89,0.00,,,0.00,Wunderground v.1.15,2014-09-17 04:48:00,
2014-09-17 00:49:00,54.1,51.2,30.10,NNE,24,0.0,0.0,90,0.00,,,0.00,Wunderground v.1.15,2014-09-17 04:49:00,
2014-09-17 00:51:00,54.0,50.8,30.10,NNE,24,0.0,0.0,89,0.00,,,0.00,Wunderground v.1.15,2014-09-17 04:51:00,
2014-09-17 00:53:00,53.9,51.0,30.10,NNE,24,0.0,0.0,90,0.00,,,0.00,Wunderground v.1.15,2014-09-17 04:53:00,
2014-09-17 00:55:00,53.8,50.9,30.10,NNE,24,0.0,0.0,90,0.00,,,0.00,Wunderground v.1.15,2014-09-17 04:55:00,
2014-09-17 01:00:00,53.5,50.6,30.10,NNE,24,0.0,0.0,90,0.00,,,0.00,Wunderground v.1.15,2014-09-17 05:00:00,
2014-09-17 01:02:00,53.4,50.5,30.10,NNE,24,0.0,0.0,90,0.00,,,0.00,Wunderground v.1.15,2014-09-17 05:02:00,
2014-09-17 01:06:00,53.2,50.3,30.10,NNE,24,0.0,0.0,90,0.00,,,0.00,Wunderground v.1.15,2014-09-17 05:06:00,
2014-09-17 01:07:00,53.2,50.3,30.10,NNE,24,0.0,0.0,90,0.00,,,0.00,Wunderground v.1.15,2014-09-17 05:07:00,
2014-09-17 01:10:00,53.0,50.4,30.09,NNE,24,0.0,0.0,91,0.00,,,0.00,Wunderground v.1.15,2014-09-17 05:10:00,
2014-09-17 01:13:00,52.9,50.0,30.09,NNE,24,0.0,0.0,90,0.00,,,0.00,Wunderground v.1.15,2014-09-17 05:13:00,
2014-09-17 01:14:00,52.8,49.9,30.09,NNE,24,0.0,0.0,90,0.00,,,0.00,Wunderground v.1.15,2014-09-17 05:14:00,
2014-09-17 01:17:00,52.7,50.1,30.09,NNE,24,0.0,0.0,91,0.00,,,0.00,Wunderground v.1.15,2014-09-17 05:17:00,
2014-09-17 01:18:00,52.6,50.0,30.10,NNE,24,0.0,0.0,91,0.00,,,0.00,Wunderground v.1.15,2014-09-17 05:18:00,
2014-09-17 01:20:00,52.6,50.0,30.10,NNE,24,0.0,0.0,91,0.00,,,0.00,Wunderground v.1.15,2014-09-17 05:20:00,
2014-09-17 01:22:00,52.5,49.9,30.10,NNE,24,0.0,0.0,91,0.00,,,0.00,Wunderground v.1.15,2014-09-17 05:22:00,
2014-09-17 01:25:00,52.3,49.8,30.10,NNE,24,0.0,0.0,91,0.00,,,0.00,Wunderground v.1.15,2014-09-17 05:25:00,
2014-09-17 01:26:00,52.3,49.8,30.10,NNE,24,0.0,0.0,91,0.00,,,0.00,Wunderground v.1.15,2014-09-17 05:26:00,
2014-09-17 01:27:00,52.3,49.8,30.10,NNE,24,0.0,0.0,91,0.00,,,0.00,Wunderground v.1.15,2014-09-17 05:27:00,
2014-09-17 01:29:00,52.2,49.7,30.09,NNE,24,0.0,0.0,91,0.00,,,0.00,Wunderground v.1.15,2014-09-17 05:29:00,
2014-09-17 01:31:00,52.1,49.6,30.09,NNE,24,0.0,0.0,91,0.00,,,0.00,Wunderground v.1.15,2014-09-17 05:31:00,
2014-09-17 01:36:00,52.0,49.7,30.09,NNE,24,0.0,0.0,92,0.00,,,0.00,Wunderground v.1.15,2014-09-17 05:36:00,
2014-09-17 01:37:00,51.9,49.6,30.09,NNE,24,0.0,0.0,92,0.00,,,0.00,Wunderground v.1.15,2014-09-17 05:37:00,
2014-09-17 01:39:00,51.8,49.3,30.09,NNE,24,0.0,0.0,91,0.00,,,0.00,Wunderground v.1.15,2014-09-17 05:39:00,
2014-09-17 01:41:00,51.7,49.2,30.09,NNE,24,0.0,0.0,91,0.00,,,0.00,Wunderground v.1.15,2014-09-17 05:41:00,
2014-09-17 01:42:00,51.7,49.5,30.09,NNE,24,0.0,0.0,92,0.00,,,0.00,Wunderground v.1.15,2014-09-17 05:42:00,
2014-09-17 01:46:00,51.5,49.3,30.09,NNE,24,0.0,0.0,92,0.00,,,0.00,Wunderground v.1.15,2014-09-17 05:46:00,
2014-09-17 01:47:00,51.5,49.3,30.09,NNE,24,0.0,0.0,92,0.00,,,0.00,Wunderground v.1.15,2014-09-17 05:47:00,
2014-09-17 01:48:00,51.5,49.3,30.09,NNE,24,0.0,0.0,92,0.00,,,0.00,Wunderground v.1.15,2014-09-17 05:48:00,
2014-09-17 01:49:00,51.5,49.3,30.09,NNE,24,0.0,0.0,92,0.00,,,0.00,Wunderground v.1.15,2014-09-17 05:49:00,
2014-09-17 01:52:00,51.5,49.3,30.09,NNE,24,0.0,0.0,92,0.00,,,0.00,Wunderground v.1.15,2014-09-17 05:52:00,
2014-09-17 01:53:00,51.4,49.2,30.09,NNE,24,0.0,0.0,92,0.00,,,0.00,Wunderground v.1.15,2014-09-17 05:53:00,
2014-09-17 01:54:00,51.4,49.2,30.09,NNE,24,0.0,0.0,92,0.00,,,0.00,Wunderground v.1.15,2014-09-17 05:54:00,
2014-09-17 01:58:00,51.3,49.1,30.09,NNE,24,0.0,0.0,92,0.00,,,0.00,Wunderground v.1.15,2014-09-17 05:58:00,
2014-09-17 02:00:00,51.3,49.1,30.09,NNE,24,0.0,0.0,92,0.00,,,0.00,Wunderground v.1.15,2014-09-17 06:00:00,
2014-09-17 02:01:00,51.2,49.0,30.09,NNE,24,0.0,0.0,92,0.00,,,0.00,Wunderground v.1.15,2014-09-17 06:01:00,
2014-09-17 02:02:00,51.2,49.0,30.09,NNE,24,0.0,0.0,92,0.00,,,0.00,Wunderground v.1.15,2014-09-17 06:02:00,
2014-09-17 02:04:00,51.2,49.0,30.09,NNE,24,0.0,0.0,92,0.00,,,0.00,Wunderground v.1.15,2014-09-17 06:04:00,
2014-09-17 02:05:00,51.2,49.0,30.09,NNE,24,0.0,0.0,92,0.00,,,0.00,Wunderground v.1.15,2014-09-17 06:05:00,
2014-09-17 02:06:00,51.2,49.2,30.10,NNE,24,0.0,0.0,93,0.00,,,0.00,Wunderground v.1.15,2014-09-17 06:06:00,
2014-09-17 02:07:00,51.2,49.2,30.09,NNE,24,0.0,0.0,93,0.00,,,0.00,Wunderground v.1.15,2014-09-17 06:07:00,
2014-09-17 02:09:00,51.1,49.1,30.10,NNE,24,0.0,0.0,93,0.00,,,0.00,Wunderground v.1.15,2014-09-17 06:09:00,
2014-09-17 02:10:00,51.1,49.1,30.09,NNE,24,0.0,0.0,93,0.00,,,0.00,Wunderground v.1.15,2014-09-17 06:10:00,
2014-09-17 02:12:00,51.1,49.1,30.10,NNE,24,0.0,0.0,93,0.00,,,0.00,Wunderground v.1.15,2014-09-17 06:12:00,
2014-09-17 02:13:00,51.1,49.1,30.10,NNE,24,0.0,0.0,93,0.00,,,0.00,Wunderground v.1.15,2014-09-17 06:13:00,
2014-09-17 02:14:00,51.2,49.2,30.09,NNE,24,0.0,0.0,93,0.00,,,0.00,Wunderground v.1.15,2014-09-17 06:14:00,
2014-09-17 02:15:00,51.1,49.1,30.09,NNE,24,0.0,0.0,93,0.00,,,0.00,Wunderground v.1.15,2014-09-17 06:15:00,
2014-09-17 02:18:00,51.1,49.1,30.09,NNE,24,0.0,0.0,93,0.00,,,0.00,Wunderground v.1.15,2014-09-17 06:18:00,
2014-09-17 02:19:00,51.1,49.1,30.09,NNE,24,0.0,0.0,93,0.00,,,0.00,Wunderground v.1.15,2014-09-17 06:19:00,
2014-09-17 02:21:00,51.1,49.1,30.09,NNE,24,0.0,0.0,93,0.00,,,0.00,Wunderground v.1.15,2014-09-17 06:21:00,
2014-09-17 02:23:00,51.0,49.0,30.09,NNE,24,0.0,0.0,93,0.00,,,0.00,Wunderground v.1.15,2014-09-17 06:23:00,
2014-09-17 02:25:00,51.0,49.0,30.09,NNE,24,0.0,0.0,93,0.00,,,0.00,Wunderground v.1.15,2014-09-17 06:25:00,
2014-09-17 02:26:00,50.9,48.9,30.09,NNE,24,0.0,0.0,93,0.00,,,0.00,Wunderground v.1.15,2014-09-17 06:26:00,
2014-09-17 02:28:00,50.9,48.9,30.09,NNE,24,0.0,0.0,93,0.00,,,0.00,Wunderground v.1.15,2014-09-17 06:28:00,
2014-09-17 02:30:00,50.8,48.8,30.09,NNE,24,0.0,0.0,93,0.00,,,0.00,Wunderground v.1.15,2014-09-17 06:30:00,
2014-09-17 02:33:00,50.8,48.8,30.09,NNE,24,0.0,0.0,93,0.00,,,0.00,Wunderground v.1.15,2014-09-17 06:33:00,
2014-09-17 02:34:00,50.7,48.7,30.09,NNE,24,0.0,0.0,93,0.00,,,0.00,Wunderground v.1.15,2014-09-17 06:34:00,
2014-09-17 02:36:00,50.7,48.7,30.09,NNE,24,0.0,0.0,93,0.00,,,0.00,Wunderground v.1.15,2014-09-17 06:36:00,
2014-09-17 02:38:00,50.7,48.7,30.09,NNE,24,0.0,0.0,93,0.00,,,0.00,Wunderground v.1.15,2014-09-17 06:38:00,
2014-09-17 02:39:00,50.6,48.7,30.09,NNE,24,0.0,0.0,93,0.00,,,0.00,Wunderground v.1.15,2014-09-17 06:39:00,
2014-09-17 02:41:00,50.6,48.7,30.09,NNE,24,0.0,0.0,93,0.00,,,0.00,Wunderground v.1.15,2014-09-17 06:41:00,
2014-09-17 02:43:00,50.6,48.7,30.09,NNE,24,0.0,0.0,93,0.00,,,0.00,Wunderground v.1.15,2014-09-17 06:43:00,
2014-09-17 02:44:00,50.6,48.7,30.09,NNE,24,0.0,0.0,93,0.00,,,0.00,Wunderground v.1.15,2014-09-17 06:44:00,
2014-09-17 02:45:00,50.5,48.6,30.09,NNE,24,0.0,0.0,93,0.00,,,0.00,Wunderground v.1.15,2014-09-17 06:45:00,
2014-09-17 02:46:00,50.5,48.6,30.09,NNE,24,0.0,0.0,93,0.00,,,0.00,Wunderground v.1.15,2014-09-17 06:46:00,
2014-09-17 02:48:00,50.5,48.8,30.09,NNE,24,0.0,0.0,94,0.00,,,0.00,Wunderground v.1.15,2014-09-17 06:48:00,
2014-09-17 02:50:00,50.5,48.8,30.09,NNE,24,0.0,0.0,94,0.00,,,0.00,Wunderground v.1.15,2014-09-17 06:50:00,
2014-09-17 02:51:00,50.5,48.8,30.09,NNE,24,0.0,0.0,94,0.00,,,0.00,Wunderground v.1.15,2014-09-17 06:51:00,
2014-09-17 02:53:00,50.4,48.7,30.09,NNE,24,0.0,0.0,94,0.00,,,0.00,Wunderground v.1.15,2014-09-17 06:53:00,
2014-09-17 02:56:00,50.3,48.6,30.09,NNE,24,0.0,0.0,94,0.00,,,0.00,Wunderground v.1.15,2014-09-17 06:56:00,
2014-09-17 02:58:00,50.3,48.6,30.09,NNE,24,0.0,0.0,94,0.00,,,0.00,Wunderground v.1.15,2014-09-17 06:58:00,
2014-09-17 03:01:00,50.2,48.5,30.09,NNE,24,0.0,0.0,94,0.00,,,0.00,Wunderground v.1.15,2014-09-17 07:01:00,
2014-09-17 03:04:00,50.1,48.4,30.09,NNE,24,0.0,0.0,94,0.00,,,0.00,Wunderground v.1.15,2014-09-17 07:04:00,
2014-09-17 03:06:00,50.0,48.3,30.09,NNE,24,0.0,0.0,94,0.00,,,0.00,Wunderground v.1.15,2014-09-17 07:06:00,
2014-09-17 03:08:00,50.0,48.3,30.09,NNE,24,0.0,0.0,94,0.00,,,0.00,Wunderground v.1.15,2014-09-17 07:08:00,
2014-09-17 03:12:00,50.0,48.3,30.09,NNE,24,0.0,0.0,94,0.00,,,0.00,Wunderground v.1.15,2014-09-17 07:12:00,
2014-09-17 03:13:00,50.0,48.3,30.08,NNE,24,0.0,0.0,94,0.00,,,0.00,Wunderground v.1.15,2014-09-17 07:13:00,
2014-09-17 03:17:00,49.9,48.2,30.08,NNE,24,0.0,0.0,94,0.00,,,0.00,Wunderground v.1.15,2014-09-17 07:17:00,
2014-09-17 03:19:00,49.8,48.1,30.08,NNE,24,0.0,0.0,94,0.00,,,0.00,Wunderground v.1.15,2014-09-17 07:19:00,
2014-09-17 03:22:00,49.7,48.0,30.09,NNE,24,0.0,0.0,94,0.00,,,0.00,Wunderground v.1.15,2014-09-17 07:22:00,
2014-09-17 03:23:00,49.7,48.0,30.09,NNE,24,0.0,0.0,94,0.00,,,0.00,Wunderground v.1.15,2014-09-17 07:23:00,
2014-09-17 03:25:00,49.6,47.9,30.08,NNE,24,0.0,0.0,94,0.00,,,0.00,Wunderground v.1.15,2014-09-17 07:25:00,
2014-09-17 03:27:00,49.6,47.9,30.09,NNE,24,0.0,0.0,94,0.00,,,0.00,Wunderground v.1.15,2014-09-17 07:27:00,
2014-09-17 03:29:00,49.5,47.8,30.09,NNE,24,0.0,0.0,94,0.00,,,0.00,Wunderground v.1.15,2014-09-17 07:29:00,
2014-09-17 03:31:00,49.4,47.7,30.09,NNE,24,0.0,0.0,94,0.00,,,0.00,Wunderground v.1.15,2014-09-17 07:31:00,
2014-09-17 03:32:00,49.4,47.7,30.09,NNE,24,0.0,0.0,94,0.00,,,0.00,Wunderground v.1.15,2014-09-17 07:32:00,
2014-09-17 03:33:00,49.4,47.7,30.09,NNE,24,0.0,0.0,94,0.00,,,0.00,Wunderground v.1.15,2014-09-17 07:33:00,
2014-09-17 03:34:00,49.4,47.7,30.09,NNE,24,0.0,0.0,94,0.00,,,0.00,Wunderground v.1.15,2014-09-17 07:34:00,
2014-09-17 03:36:00,49.3,47.6,30.09,NNE,24,0.0,0.0,94,0.00,,,0.00,Wunderground v.1.15,2014-09-17 07:36:00,
2014-09-17 03:37:00,49.3,47.6,30.09,NNE,24,0.0,0.0,94,0.00,,,0.00,Wunderground v.1.15,2014-09-17 07:37:00,
2014-09-17 03:38:00,49.3,47.6,30.09,NNE,24,0.0,0.0,94,0.00,,,0.00,Wunderground v.1.15,2014-09-17 07:38:00,
2014-09-17 03:40:00,49.3,47.6,30.09,NNE,24,0.0,0.0,94,0.00,,,0.00,Wunderground v.1.15,2014-09-17 07:40:00,
2014-09-17 03:41:00,49.3,47.6,30.09,NNE,24,0.0,0.0,94,0.00,,,0.00,Wunderground v.1.15,2014-09-17 07:41:00,
2014-09-17 03:42:00,49.3,47.6,30.09,NNE,24,0.0,0.0,94,0.00,,,0.00,Wunderground v.1.15,2014-09-17 07:42:00,
2014-09-17 03:44:00,49.2,47.5,30.09,NNE,24,0.0,0.0,94,0.00,,,0.00,Wunderground v.1.15,2014-09-17 07:44:00,
2014-09-17 03:45:00,49.2,47.5,30.09,NNE,24,0.0,0.0,94,0.00,,,0.00,Wunderground v.1.15,2014-09-17 07:45:00,
2014-09-17 03:47:00,49.2,47.5,30.08,NNE,24,0.0,0.0,94,0.00,,,0.00,Wunderground v.1.15,2014-09-17 07:47:00,
2014-09-17 03:48:00,49.2,47.8,30.08,NNE,24,0.0,0.0,95,0.00,,,0.00,Wunderground v.1.15,2014-09-17 07:48:00,
2014-09-17 03:50:00,49.2,47.8,30.08,NNE,24,0.0,0.0,95,0.00,,,0.00,Wunderground v.1.15,2014-09-17 07:50:00,
2014-09-17 03:52:00,49.1,47.4,30.08,NNE,24,0.0,0.0,94,0.00,,,0.00,Wunderground v.1.15,2014-09-17 07:52:00,
2014-09-17 03:54:00,49.0,47.3,30.08,NNE,24,0.0,0.0,94,0.00,,,0.00,Wunderground v.1.15,2014-09-17 07:54:00,
2014-09-17 03:55:00,49.0,47.3,30.08,NNE,24,0.0,0.0,94,0.00,,,0.00,Wunderground v.1.15,2014-09-17 07:55:00,
2014-09-17 03:57:00,48.9,47.2,30.08,NNE,24,0.0,0.0,94,0.00,,,0.00,Wunderground v.1.15,2014-09-17 07:57:00,
2014-09-17 04:00:00,48.8,47.2,30.08,NNE,24,0.0,0.0,94,0.00,,,0.00,Wunderground v.1.15,2014-09-17 08:00:00,
2014-09-17 04:03:00,48.8,47.4,30.08,NNE,24,0.0,0.0,95,0.00,,,0.00,Wunderground v.1.15,2014-09-17 08:03:00,
2014-09-17 04:05:00,48.8,47.4,30.08,NNE,24,0.0,0.0,95,0.00,,,0.00,Wunderground v.1.15,2014-09-17 08:05:00,
2014-09-17 04:06:00,48.8,47.4,30.08,NNE,24,0.0,0.0,95,0.00,,,0.00,Wunderground v.1.15,2014-09-17 08:06:00,
2014-09-17 04:08:00,48.7,47.3,30.08,NNE,24,0.0,0.0,95,0.00,,,0.00,Wunderground v.1.15,2014-09-17 08:08:00,
2014-09-17 04:11:00,48.7,47.3,30.08,NNE,24,0.0,0.0,95,0.00,,,0.00,Wunderground v.1.15,2014-09-17 08:11:00,
2014-09-17 04:13:00,48.6,47.0,30.08,NNE,24,0.0,0.0,94,0.00,,,0.00,Wunderground v.1.15,2014-09-17 08:13:00,
2014-09-17 04:16:00,48.5,46.9,30.08,NNE,24,0.0,0.0,94,0.00,,,0.00,Wunderground v.1.15,2014-09-17 08:16:00,
2014-09-17 04:17:00,48.5,46.9,30.08,NNE,24,0.0,0.0,94,0.00,,,0.00,Wunderground v.1.15,2014-09-17 08:17:00,
2014-09-17 04:18:00,48.5,46.9,30.08,NNE,24,0.0,0.0,94,0.00,,,0.00,Wunderground v.1.15,2014-09-17 08:18:00,
2014-09-17 04:21:00,48.4,47.0,30.08,NNE,24,0.0,0.0,95,0.00,,,0.00,Wunderground v.1.15,2014-09-17 08:21:00,
2014-09-17 04:22:00,48.4,47.0,30.08,NNE,24,0.0,0.0,95,0.00,,,0.00,Wunderground v.1.15,2014-09-17 08:22:00,
2014-09-17 04:23:00,48.4,47.0,30.08,NNE,24,0.0,0.0,95,0.00,,,0.00,Wunderground v.1.15,2014-09-17 08:23:00,
2014-09-17 04:27:00,48.4,47.0,30.08,NNE,24,0.0,0.0,95,0.00,,,0.00,Wunderground v.1.15,2014-09-17 08:27:00,
2014-09-17 04:28:00,48.3,46.9,30.08,NNE,24,0.0,0.0,95,0.00,,,0.00,Wunderground v.1.15,2014-09-17 08:28:00,
2014-09-17 04:32:00,48.3,46.9,30.08,NNE,24,0.0,0.0,95,0.00,,,0.00,Wunderground v.1.15,2014-09-17 08:32:00,
2014-09-17 04:33:00,48.3,46.9,30.08,NNE,24,0.0,0.0,95,0.00,,,0.00,Wunderground v.1.15,2014-09-17 08:33:00,
2014-09-17 04:38:00,48.2,46.8,30.08,NNE,24,0.0,0.0,95,0.00,,,0.00,Wunderground v.1.15,2014-09-17 08:38:00,
2014-09-17 04:39:00,48.2,46.8,30.08,NNE,24,0.0,0.0,95,0.00,,,0.00,Wunderground v.1.15,2014-09-17 08:39:00,
2014-09-17 04:43:00,48.1,46.7,30.08,NNE,24,0.0,0.0,95,0.00,,,0.00,Wunderground v.1.15,2014-09-17 08:43:00,
2014-09-17 04:44:00,48.1,46.7,30.08,NNE,24,0.0,0.0,95,0.00,,,0.00,Wunderground v.1.15,2014-09-17 08:44:00,
2014-09-17 04:48:00,48.1,46.7,30.08,NNE,24,0.0,0.0,95,0.00,,,0.00,Wunderground v.1.15,2014-09-17 08:48:00,
2014-09-17 04:49:00,48.1,46.7,30.08,NNE,24,0.0,0.0,95,0.00,,,0.00,Wunderground v.1.15,2014-09-17 08:49:00,
2014-09-17 04:53:00,48.1,46.7,30.08,NNE,24,0.0,0.0,95,0.00,,,0.00,Wunderground v.1.15,2014-09-17 08:53:00,
2014-09-17 04:54:00,48.1,46.7,30.08,NNE,24,0.0,0.0,95,0.00,,,0.00,Wunderground v.1.15,2014-09-17 08:54:00,
2014-09-17 04:55:00,48.1,46.7,30.08,NNE,24,0.0,0.0,95,0.00,,,0.00,Wunderground v.1.15,2014-09-17 08:55:00,
2014-09-17 04:59:00,48.1,46.7,30.08,NNE,24,0.0,0.0,95,0.00,,,0.00,Wunderground v.1.15,2014-09-17 08:59:00,
2014-09-17 05:00:00,48.0,46.6,30.08,NNE,24,0.0,0.0,95,0.00,,,0.00,Wunderground v.1.15,2014-09-17 09:00:00,
2014-09-17 05:04:00,48.0,46.6,30.07,NNE,24,0.0,0.0,95,0.00,,,0.00,Wunderground v.1.15,2014-09-17 09:04:00,
2014-09-17 05:05:00,48.0,46.6,30.08,NNE,24,0.0,0.0,95,0.00,,,0.00,Wunderground v.1.15,2014-09-17 09:05:00,
2014-09-17 05:06:00,48.0,46.6,30.08,NNE,24,0.0,0.0,95,0.00,,,0.00,Wunderground v.1.15,2014-09-17 09:06:00,
2014-09-17 05:10:00,47.9,46.5,30.08,NNE,24,0.0,0.0,95,0.00,,,0.00,Wunderground v.1.15,2014-09-17 09:10:00,
2014-09-17 05:11:00,47.9,46.5,30.08,NNE,24,0.0,0.0,95,0.00,,,0.00,Wunderground v.1.15,2014-09-17 09:11:00,
2014-09-17 05:15:00,47.9,46.5,30.08,NNE,24,0.0,0.0,95,0.00,,,0.00,Wunderground v.1.15,2014-09-17 09:15:00,
2014-09-17 05:16:00,47.8,46.4,30.08,NNE,24,0.0,0.0,95,0.00,,,0.00,Wunderground v.1.15,2014-09-17 09:16:00,
2014-09-17 05:21:00,47.8,46.4,30.08,NNE,24,0.0,0.0,95,0.00,,,0.00,Wunderground v.1.15,2014-09-17 09:21:00,
2014-09-17 05:22:00,47.7,46.3,30.08,NNE,24,0.0,0.0,95,0.00,,,0.00,Wunderground v.1.15,2014-09-17 09:22:00,
2014-09-17 05:26:00,47.6,46.2,30.08,NNE,24,0.0,0.0,95,0.00,,,0.00,Wunderground v.1.15,2014-09-17 09:26:00,
2014-09-17 05:27:00,47.6,46.2,30.08,NNE,24,0.0,0.0,95,0.00,,,0.00,Wunderground v.1.15,2014-09-17 09:27:00,
2014-09-17 05:31:00,47.5,46.1,30.08,NNE,24,0.0,0.0,95,0.00,,,0.00,Wunderground v.1.15,2014-09-17 09:31:00,
2014-09-17 05:32:00,47.4,46.0,30.08,NNE,24,0.0,0.0,95,0.00,,,0.00,Wunderground v.1.15,2014-09-17 09:32:00,
2014-09-17 05:33:00,47.4,46.0,30.08,NNE,24,0.0,0.0,95,0.00,,,0.00,Wunderground v.1.15,2014-09-17 09:33:00,
2014-09-17 05:37:00,47.4,46.0,30.08,NNE,24,0.0,0.0,95,0.00,,,0.00,Wunderground v.1.15,2014-09-17 09:37:00,
2014-09-17 05:38:00,47.4,46.0,30.08,NNE,24,0.0,0.0,95,0.00,,,0.00,Wunderground v.1.15,2014-09-17 09:38:00,
2014-09-17 05:43:00,47.6,46.2,30.08,NNE,24,0.0,0.0,95,0.00,,,0.00,Wunderground v.1.15,2014-09-17 09:43:00,
2014-09-17 05:48:00,47.6,46.2,30.08,NNE,24,0.0,0.0,95,0.00,,,0.00,Wunderground v.1.15,2014-09-17 09:48:00,
2014-09-17 05:54:00,47.7,46.3,30.08,NNE,24,0.0,0.0,95,0.00,,,0.00,Wunderground v.1.15,2014-09-17 09:54:00,
2014-09-17 05:56:00,47.7,46.3,30.08,NNE,24,0.0,0.0,95,0.00,,,0.00,Wunderground v.1.15,2014-09-17 09:56:00,
2014-09-17 06:00:00,47.9,46.8,30.07,NNE,24,0.0,0.0,96,0.00,,,0.00,Wunderground v.1.15,2014-09-17 10:00:00,
2014-09-17 06:01:00,48.1,47.0,30.07,NNE,24,0.0,0.0,96,0.00,,,0.00,Wunderground v.1.15,2014-09-17 10:01:00,
2014-09-17 06:05:00,48.3,47.2,30.07,NNE,24,0.0,0.0,96,0.00,,,0.00,Wunderground v.1.15,2014-09-17 10:05:00,
2014-09-17 06:06:00,48.4,47.3,30.07,NNE,24,0.0,0.0,96,0.00,,,0.00,Wunderground v.1.15,2014-09-17 10:06:00,
2014-09-17 06:10:00,48.6,47.5,30.08,NNE,24,0.0,0.0,96,0.00,,,0.00,Wunderground v.1.15,2014-09-17 10:10:00,
2014-09-17 06:11:00,48.6,47.5,30.08,NNE,24,0.0,0.0,96,0.00,,,0.00,Wunderground v.1.15,2014-09-17 10:11:00,
2014-09-17 06:15:00,48.8,47.7,30.08,NNE,24,0.0,1.0,96,0.00,,,0.00,Wunderground v.1.15,2014-09-17 10:15:00,
2014-09-17 06:16:00,48.9,47.8,30.07,NNE,24,0.0,1.0,96,0.00,,,0.00,Wunderground v.1.15,2014-09-17 10:16:00,
2014-09-17 06:17:00,48.9,47.8,30.08,NNE,24,0.0,1.0,96,0.00,,,0.00,Wunderground v.1.15,2014-09-17 10:17:00,
2014-09-17 06:20:00,49.0,47.9,30.08,NNE,24,0.0,1.0,96,0.00,,,0.00,Wunderground v.1.15,2014-09-17 10:20:00,
2014-09-17 06:22:00,49.1,48.0,30.08,NNE,24,0.0,0.0,96,0.00,,,0.00,Wunderground v.1.15,2014-09-17 10:22:00,
2014-09-17 06:25:00,49.2,48.1,30.08,NNE,24,0.0,0.0,96,0.00,,,0.00,Wunderground v.1.15,2014-09-17 10:25:00,
2014-09-17 06:28:00,49.3,48.2,30.08,NNE,24,0.0,0.0,96,0.00,,,0.00,Wunderground v.1.15,2014-09-17 10:28:00,
2014-09-17 06:30:00,49.4,48.3,30.08,NNE,24,0.0,0.0,96,0.00,,,0.00,Wunderground v.1.15,2014-09-17 10:30:00,
2014-09-17 06:31:00,49.4,48.3,30.08,NNE,24,0.0,0.0,96,0.00,,,0.00,Wunderground v.1.15,2014-09-17 10:31:00,
2014-09-17 06:34:00,49.5,48.4,30.08,NNE,24,0.0,0.0,96,0.00,,,0.00,Wunderground v.1.15,2014-09-17 10:34:00,
2014-09-17 06:35:00,49.6,48.5,30.08,NNE,24,0.0,0.0,96,0.00,,,0.00,Wunderground v.1.15,2014-09-17 10:35:00,
2014-09-17 06:36:00,49.6,48.5,30.08,NNE,24,0.0,0.0,96,0.00,,,0.00,Wunderground v.1.15,2014-09-17 10:36:00,
2014-09-17 06:39:00,49.6,48.5,30.08,NNE,24,0.0,0.0,96,0.00,,,0.00,Wunderground v.1.15,2014-09-17 10:39:00,
2014-09-17 06:41:00,49.7,48.6,30.08,NNE,24,0.0,0.0,96,0.00,,,0.00,Wunderground v.1.15,2014-09-17 10:41:00,
2014-09-17 06:44:00,49.8,48.7,30.08,NNE,24,0.0,0.0,96,0.00,,,0.00,Wunderground v.1.15,2014-09-17 10:44:00,
2014-09-17 06:47:00,49.9,48.8,30.08,NNE,24,0.0,0.0,96,0.00,,,0.00,Wunderground v.1.15,2014-09-17 10:47:00,
2014-09-17 06:50:00,49.9,48.8,30.08,NNE,24,0.0,0.0,96,0.00,,,0.00,Wunderground v.1.15,2014-09-17 10:50:00,
2014-09-17 06:52:00,50.0,50.0,30.08,NNE,24,0.0,0.0,100,0.00,,,0.00,Wunderground v.1.15,2014-09-17 10:52:00,
2014-09-17 06:55:00,50.1,49.3,30.08,NNE,24,0.0,0.0,97,0.00,,,0.00,Wunderground v.1.15,2014-09-17 10:55:00,
2014-09-17 06:57:00,50.2,49.4,30.08,NNE,24,0.0,0.0,97,0.00,,,0.00,Wunderground v.1.15,2014-09-17 10:57:00,
2014-09-17 07:00:00,50.3,49.5,30.08,NNE,24,0.0,0.0,97,0.00,,,0.00,Wunderground v.1.15,2014-09-17 11:00:00,
2014-09-17 07:01:00,50.4,49.6,30.08,NNE,24,0.0,0.0,97,0.00,,,0.00,Wunderground v.1.15,2014-09-17 11:01:00,
2014-09-17 07:02:00,50.4,49.6,30.08,NNE,24,0.0,0.0,97,0.00,,,0.00,Wunderground v.1.15,2014-09-17 11:02:00,
2014-09-17 07:03:00,50.4,49.6,30.08,NNE,24,0.0,0.0,97,0.00,,,0.00,Wunderground v.1.15,2014-09-17 11:03:00,
2014-09-17 07:05:00,50.5,49.7,30.08,NNE,24,0.0,0.0,97,0.00,,,0.00,Wunderground v.1.15,2014-09-17 11:05:00,
2014-09-17 07:07:00,50.5,49.7,30.08,NNE,24,0.0,0.0,97,0.00,,,0.00,Wunderground v.1.15,2014-09-17 11:07:00,
2014-09-17 07:08:00,50.5,49.7,30.08,NNE,24,0.0,0.0,97,0.00,,,0.00,Wunderground v.1.15,2014-09-17 11:08:00,
2014-09-17 07:10:00,50.6,49.8,30.08,NNE,24,0.0,0.0,97,0.00,,,0.00,Wunderground v.1.15,2014-09-17 11:10:00,
2014-09-17 07:13:00,50.7,49.9,30.08,NNE,24,0.0,0.0,97,0.00,,,0.00,Wunderground v.1.15,2014-09-17 11:13:00,
2014-09-17 07:15:00,50.8,50.0,30.08,NNE,24,0.0,0.0,97,0.00,,,0.00,Wunderground v.1.15,2014-09-17 11:15:00,
2014-09-17 07:18:00,50.8,50.0,30.08,NNE,24,0.0,0.0,97,0.00,,,0.00,Wunderground v.1.15,2014-09-17 11:18:00,
2014-09-17 07:21:00,50.8,50.0,30.08,NNE,24,0.0,0.0,97,0.00,,,0.00,Wunderground v.1.15,2014-09-17 11:21:00,
2014-09-17 07:23:00,50.9,50.1,30.08,NNE,24,0.0,0.0,97,0.00,,,0.00,Wunderground v.1.15,2014-09-17 11:23:00,
2014-09-17 07:24:00,50.9,50.1,30.08,NNE,24,0.0,0.0,97,0.00,,,0.00,Wunderground v.1.15,2014-09-17 11:24:00,
2014-09-17 07:26:00,50.9,50.1,30.08,NNE,24,0.0,0.0,97,0.00,,,0.00,Wunderground v.1.15,2014-09-17 11:26:00,
2014-09-17 07:29:00,51.0,50.2,30.08,NNE,24,0.0,0.0,97,0.00,,,0.00,Wunderground v.1.15,2014-09-17 11:29:00,
2014-09-17 07:32:00,51.0,50.2,30.08,NNE,24,0.0,0.0,97,0.00,,,0.00,Wunderground v.1.15,2014-09-17 11:32:00,
2014-09-17 07:34:00,51.1,50.3,30.08,NNE,24,0.0,0.0,97,0.00,,,0.00,Wunderground v.1.15,2014-09-17 11:34:00,
2014-09-17 07:37:00,51.1,50.3,30.09,NNE,24,0.0,0.0,97,0.00,,,0.00,Wunderground v.1.15,2014-09-17 11:37:00,
2014-09-17 07:40:00,51.1,50.3,30.09,NNE,24,0.0,0.0,97,0.00,,,0.00,Wunderground v.1.15,2014-09-17 11:40:00,
2014-09-17 07:42:00,51.1,50.3,30.09,NNE,24,0.0,0.0,97,0.00,,,0.00,Wunderground v.1.15,2014-09-17 11:42:00,
2014-09-17 07:45:00,51.1,50.3,30.09,NNE,24,0.0,0.0,97,0.00,,,0.00,Wunderground v.1.15,2014-09-17 11:45:00,
2014-09-17 07:47:00,51.1,50.3,30.09,NNE,24,0.0,0.0,97,0.00,,,0.00,Wunderground v.1.15,2014-09-17 11:47:00,